Location: Bonn
(50.7330°N, 7.1000°E)
Time: 04:19:39
(UTC+02:00)

Cosmos 1933 Rocket - Visible Passes

Search period start: 30 March 2015 00:00
Search period end: 09 April 2015 00:00
Orbit: 609 x 630 km, 82.5° (Epoch: 29 March)

Date Brightness Start Highest point End Pass type
(mag) Time Alt. Az. Time Alt. Az. Time Alt. Az.
30 Mar 3.6 20:46:21 10° N 20:50:51 89° E 20:55:19 10° S visible
30 Mar 6.7 22:26:20 10° WNW 22:28:06 12° W 22:29:39 10° WSW visible
31 Mar 4.5 21:03:57 10° NNW 21:08:20 53° W 21:12:39 10° S visible
01 Apr 5.6 21:21:44 10° NNW 21:25:42 31° W 21:29:36 10° SSW visible
02 Apr 6.4 21:39:50 10° NW 21:43:01 19° W 21:46:04 10° SW visible
03 Apr 6.9 21:58:49 10° WNW 22:00:15 11° W 22:01:27 10° W visible
04 Apr 4.7 20:36:09 10° NNW 20:40:30 50° W 20:44:47 10° SSW visible
05 Apr 5.8 20:53:58 10° NNW 20:57:52 29° W 21:01:41 10° SSW visible
06 Apr 6.6 21:12:07 10° NW 21:15:09 18° W 21:18:05 10° SW visible
07 Apr 7.2 21:31:26 10° WNW 21:32:23 10° W 21:33:05 10° W visible
